Time,TemperatureF,DewpointF,PressureIn,WindDirection,WindDirectionDegrees,WindSpeedMPH,WindSpeedGustMPH,Humidity,HourlyPrecipIn,Conditions,Clouds,dailyrainin,SoftwareType,DateUTC
2013-09-03 00:01:00,71.5,70.0,29.86,WNW,288,0.0,0.0,95,0.00,RA,,0.00,WeatherDisplay:10.37,2013-09-03 04:01:00,
2013-09-03 00:02:00,71.5,70.0,29.86,WNW,288,0.0,0.0,95,0.00,RA,,0.00,WeatherDisplay:10.37,2013-09-03 04:02:00,
2013-09-03 00:03:00,71.5,70.0,29.86,WNW,288,0.0,0.0,95,0.00,RA,,0.00,WeatherDisplay:10.37,2013-09-03 04:03:00,
2013-09-03 00:08:00,71.4,69.9,29.86,West,277,0.0,0.0,95,0.00,RA,,0.00,WeatherDisplay:10.37,2013-09-03 04:08:00,
2013-09-03 00:13:00,71.3,69.8,29.86,West,277,0.0,0.0,95,0.00,RA,,0.00,WeatherDisplay:10.37,2013-09-03 04:13:00,
2013-09-03 00:18:00,71.4,69.9,29.86,West,277,0.0,0.0,95,0.00,CLR,,0.00,WeatherDisplay:10.37,2013-09-03 04:18:00,
2013-09-03 00:23:00,71.3,69.8,29.86,West,277,0.0,0.0,95,0.00,CLR,,0.00,WeatherDisplay:10.37,2013-09-03 04:23:00,
2013-09-03 00:28:00,71.3,69.8,29.86,West,277,0.0,0.0,95,0.00,CLR,,0.00,WeatherDisplay:10.37,2013-09-03 04:28:00,
2013-09-03 00:33:00,71.2,69.7,29.86,West,277,0.0,0.0,95,0.00,CLR,,0.00,WeatherDisplay:10.37,2013-09-03 04:33:00,
2013-09-03 00:38:00,71.2,69.7,29.86,West,277,0.0,0.0,95,0.00,CLR,,0.00,WeatherDisplay:10.37,2013-09-03 04:38:00,
2013-09-03 00:43:00,71.2,69.7,29.86,West,277,0.0,0.0,95,0.00,CLR,,0.00,WeatherDisplay:10.37,2013-09-03 04:43:00,
2013-09-03 00:48:00,71.2,69.7,29.86,West,277,0.0,0.0,95,0.00,CLR,,0.00,WeatherDisplay:10.37,2013-09-03 04:48:00,
2013-09-03 00:53:00,71.2,69.7,29.87,West,277,0.0,0.0,95,0.00,CLR,,0.00,WeatherDisplay:10.37,2013-09-03 04:53:00,
2013-09-03 00:58:00,71.2,70.0,29.86,West,277,0.0,0.0,96,0.00,CLR,,0.00,WeatherDisplay:10.37,2013-09-03 04:58:00,
2013-09-03 01:03:00,71.2,70.0,29.86,West,280,1.2,1.2,96,0.00,CLR,,0.00,WeatherDisplay:10.37,2013-09-03 05:03:00,
2013-09-03 01:08:00,71.3,70.1,29.86,West,275,0.0,0.0,96,0.00,CLR,,0.00,WeatherDisplay:10.37,2013-09-03 05:08:00,
2013-09-03 01:13:00,71.3,70.1,29.86,West,275,0.0,0.0,96,0.00,CLR,,0.00,WeatherDisplay:10.37,2013-09-03 05:13:00,
2013-09-03 01:18:00,71.3,70.1,29.86,West,275,0.0,0.0,96,0.00,CLR,,0.00,WeatherDisplay:10.37,2013-09-03 05:18:00,
2013-09-03 01:23:00,71.3,70.1,29.86,West,275,0.0,0.0,96,0.00,CLR,,0.00,WeatherDisplay:10.37,2013-09-03 05:23:00,
2013-09-03 01:28:00,71.1,69.6,29.86,West,275,0.0,0.0,95,0.00,CLR,,0.00,WeatherDisplay:10.37,2013-09-03 05:28:00,
2013-09-03 01:33:00,71.1,69.6,29.86,West,275,0.0,0.0,95,0.00,CLR,,0.00,WeatherDisplay:10.37,2013-09-03 05:33:00,
2013-09-03 01:38:00,71.0,69.5,29.87,West,275,0.0,0.0,95,0.00,CLR,,0.00,WeatherDisplay:10.37,2013-09-03 05:38:00,
2013-09-03 01:43:00,70.9,69.4,29.86,West,275,0.0,0.0,95,0.00,CLR,,0.00,WeatherDisplay:10.37,2013-09-03 05:43:00,
2013-09-03 01:48:00,70.9,69.4,29.87,West,275,0.0,0.0,95,0.00,CLR,,0.00,WeatherDisplay:10.37,2013-09-03 05:48:00,
2013-09-03 01:53:00,70.8,69.3,29.87,West,275,0.0,0.0,95,0.00,CLR,,0.00,WeatherDisplay:10.37,2013-09-03 05:53:00,
2013-09-03 01:58:00,70.8,69.3,29.87,West,275,0.0,0.0,95,0.00,CLR,,0.00,WeatherDisplay:10.37,2013-09-03 05:58:00,
2013-09-03 02:03:00,70.7,69.2,29.86,West,275,0.0,0.0,95,0.00,CLR,,0.00,WeatherDisplay:10.37,2013-09-03 06:03:00,
2013-09-03 02:08:00,70.7,69.5,29.87,West,275,0.0,0.0,96,0.00,CLR,,0.00,WeatherDisplay:10.37,2013-09-03 06:08:00,
2013-09-03 02:13:00,70.6,69.4,29.86,West,275,0.0,0.0,96,0.00,CLR,,0.00,WeatherDisplay:10.37,2013-09-03 06:13:00,
2013-09-03 02:18:00,70.6,69.4,29.86,West,275,0.0,0.0,96,0.00,CLR,,0.00,WeatherDisplay:10.37,2013-09-03 06:18:00,
2013-09-03 02:23:00,70.6,69.4,29.86,West,275,0.0,0.0,96,0.00,CLR,,0.00,WeatherDisplay:10.37,2013-09-03 06:23:00,
2013-09-03 02:28:00,70.6,69.4,29.86,West,275,0.0,0.0,96,0.00,CLR,,0.00,WeatherDisplay:10.37,2013-09-03 06:28:00,
2013-09-03 02:33:00,70.5,69.3,29.86,West,275,0.0,0.0,96,0.00,CLR,,0.00,WeatherDisplay:10.37,2013-09-03 06:33:00,
2013-09-03 02:38:00,70.5,69.3,29.87,West,275,0.0,0.0,96,0.00,CLR,,0.00,WeatherDisplay:10.37,2013-09-03 06:38:00,
2013-09-03 02:43:00,70.5,69.3,29.86,West,275,0.0,0.0,96,0.00,CLR,,0.00,WeatherDisplay:10.37,2013-09-03 06:43:00,
2013-09-03 02:48:00,70.5,69.3,29.87,West,275,0.0,0.0,96,0.00,CLR,,0.00,WeatherDisplay:10.37,2013-09-03 06:48:00,
2013-09-03 02:53:00,70.5,69.3,29.87,West,277,0.0,0.0,96,0.00,CLR,,0.00,WeatherDisplay:10.37,2013-09-03 06:53:00,
2013-09-03 02:58:00,70.5,69.3,29.87,WNW,284,1.2,1.2,96,0.00,CLR,,0.00,WeatherDisplay:10.37,2013-09-03 06:58:00,
2013-09-03 03:03:00,70.6,69.4,29.87,West,281,0.0,0.0,96,0.00,BKN,,0.00,WeatherDisplay:10.37,2013-09-03 07:03:00,
2013-09-03 03:08:00,70.7,69.5,29.86,West,281,0.0,0.0,96,0.00,BKN,,0.00,WeatherDisplay:10.37,2013-09-03 07:08:00,
2013-09-03 03:13:00,70.8,69.6,29.86,WNW,282,0.0,0.0,96,0.00,BKN,,0.00,WeatherDisplay:10.37,2013-09-03 07:13:00,
2013-09-03 03:18:00,70.8,69.6,29.86,WSW,253,0.0,0.0,96,0.00,BKN,,0.00,WeatherDisplay:10.37,2013-09-03 07:18:00,
2013-09-03 03:23:00,70.8,69.6,29.86,WSW,253,0.0,0.0,96,0.00,BKN,,0.00,WeatherDisplay:10.37,2013-09-03 07:23:00,
2013-09-03 03:28:00,70.8,69.6,29.86,WSW,253,0.0,0.0,96,0.00,BKN,,0.00,WeatherDisplay:10.37,2013-09-03 07:28:00,
2013-09-03 03:33:00,70.9,69.7,29.86,WSW,253,0.0,0.0,96,0.00,BKN,,0.00,WeatherDisplay:10.37,2013-09-03 07:33:00,
2013-09-03 03:38:00,70.9,69.7,29.86,WSW,254,0.0,0.0,96,0.00,BKN,,0.00,WeatherDisplay:10.37,2013-09-03 07:38:00,
2013-09-03 03:43:00,71.0,69.8,29.85,WSW,254,0.0,0.0,96,0.00,BKN,,0.00,WeatherDisplay:10.37,2013-09-03 07:43:00,
2013-09-03 03:48:00,71.0,69.8,29.85,WSW,254,0.0,0.0,96,0.00,BKN,,0.00,WeatherDisplay:10.37,2013-09-03 07:48:00,
2013-09-03 03:53:00,71.0,69.8,29.85,WSW,254,0.0,0.0,96,0.00,BKN,,0.00,WeatherDisplay:10.37,2013-09-03 07:53:00,
2013-09-03 03:58:00,71.0,69.8,29.85,WSW,254,0.0,0.0,96,0.00,BKN,,0.00,WeatherDisplay:10.37,2013-09-03 07:58:00,
2013-09-03 04:03:00,70.9,69.7,29.85,WSW,254,0.0,0.0,96,0.00,SCT,,0.00,WeatherDisplay:10.37,2013-09-03 08:03:00,
2013-09-03 04:08:00,70.9,69.7,29.84,WSW,254,0.0,0.0,96,0.00,SCT,,0.00,WeatherDisplay:10.37,2013-09-03 08:08:00,
2013-09-03 04:13:00,70.8,69.6,29.85,WSW,254,0.0,0.0,96,0.00,SCT,,0.00,WeatherDisplay:10.37,2013-09-03 08:13:00,
2013-09-03 04:18:00,70.7,69.5,29.85,WSW,254,0.0,0.0,96,0.00,SCT,,0.00,WeatherDisplay:10.37,2013-09-03 08:18:00,
2013-09-03 04:23:00,70.6,69.4,29.85,WSW,254,0.0,0.0,96,0.00,SCT,,0.00,WeatherDisplay:10.37,2013-09-03 08:23:00,
2013-09-03 04:28:00,70.6,69.4,29.86,West,275,1.2,1.2,96,0.00,SCT,,0.00,WeatherDisplay:10.37,2013-09-03 08:28:00,
2013-09-03 04:33:00,70.6,69.4,29.86,WSW,244,2.3,2.3,96,0.00,SCT,,0.00,WeatherDisplay:10.37,2013-09-03 08:33:00,
2013-09-03 04:38:00,70.7,69.5,29.86,West,261,2.3,2.3,96,0.00,SCT,,0.00,WeatherDisplay:10.37,2013-09-03 08:38:00,
2013-09-03 04:43:00,70.8,69.9,29.86,WSW,246,8.1,8.1,97,0.00,SCT,,0.00,WeatherDisplay:10.37,2013-09-03 08:43:00,
2013-09-03 04:48:00,71.0,70.1,29.85,WSW,256,5.8,5.8,97,0.00,SCT,,0.00,WeatherDisplay:10.37,2013-09-03 08:48:00,
2013-09-03 04:53:00,71.1,70.2,29.85,West,265,1.2,1.2,97,0.00,SCT,,0.00,WeatherDisplay:10.37,2013-09-03 08:53:00,
2013-09-03 04:58:00,71.2,70.3,29.85,West,281,1.2,1.2,97,0.00,SCT,,0.00,WeatherDisplay:10.37,2013-09-03 08:58:00,
2013-09-03 05:03:00,71.2,70.3,29.85,West,259,2.3,2.3,97,0.00,BKN,,0.00,WeatherDisplay:10.37,2013-09-03 09:03:00,
2013-09-03 05:08:00,71.3,70.4,29.84,SW,233,2.3,2.3,97,0.00,BKN,,0.00,WeatherDisplay:10.37,2013-09-03 09:08:00,
2013-09-03 05:13:00,71.3,70.1,29.84,South,190,2.3,2.3,96,0.00,BKN,,0.00,WeatherDisplay:10.37,2013-09-03 09:13:00,
2013-09-03 05:18:00,71.3,70.1,29.84,West,263,0.0,0.0,96,0.00,BKN,,0.00,WeatherDisplay:10.37,2013-09-03 09:18:00,
2013-09-03 05:23:00,71.3,70.1,29.84,South,180,4.6,4.6,96,0.00,BKN,,0.00,WeatherDisplay:10.37,2013-09-03 09:23:00,
2013-09-03 05:28:00,71.4,70.2,29.85,WSW,250,3.0,3.0,96,0.00,BKN,,0.00,WeatherDisplay:10.37,2013-09-03 09:28:00,
2013-09-03 05:33:00,71.5,70.3,29.85,WNW,284,4.6,4.6,96,0.00,BKN,,0.00,WeatherDisplay:10.37,2013-09-03 09:33:00,
2013-09-03 05:38:00,71.5,70.3,29.86,NNE,17,0.0,0.2,96,0.00,BKN,,0.00,WeatherDisplay:10.37,2013-09-03 09:38:00,
2013-09-03 05:43:00,71.5,70.3,29.85,SW,236,1.2,0.0,96,0.00,BKN,,0.00,WeatherDisplay:10.37,2013-09-03 09:43:00,
2013-09-03 05:48:00,71.6,70.4,29.85,WNW,303,3.5,3.5,96,0.00,BKN,,0.00,WeatherDisplay:10.37,2013-09-03 09:48:00,
2013-09-03 05:53:00,71.7,70.5,29.85,WSW,256,3.5,3.5,96,0.00,-DZ,,0.00,WeatherDisplay:10.37,2013-09-03 09:53:00,
2013-09-03 05:58:00,71.7,70.5,29.86,WSW,237,3.5,3.5,96,0.00,-DZ,,0.00,WeatherDisplay:10.37,2013-09-03 09:58:00,
2013-09-03 06:03:00,71.7,70.5,29.86,WSW,256,2.3,0.0,96,0.00,FEW,,0.00,WeatherDisplay:10.37,2013-09-03 10:03:00,
2013-09-03 06:08:00,71.7,70.5,29.87,WSW,256,0.0,0.0,96,0.00,FEW,,0.00,WeatherDisplay:10.37,2013-09-03 10:08:00,
2013-09-03 06:13:00,71.6,70.1,29.87,WSW,256,0.0,0.0,95,0.00,FEW,,0.00,WeatherDisplay:10.37,2013-09-03 10:13:00,
2013-09-03 06:18:00,71.6,70.1,29.87,WSW,256,0.0,0.0,95,0.00,FEW,,0.00,WeatherDisplay:10.37,2013-09-03 10:18:00,
2013-09-03 06:23:00,71.5,70.0,29.87,West,271,2.0,2.0,95,0.00,FEW,,0.00,WeatherDisplay:10.37,2013-09-03 10:23:00,
2013-09-03 06:28:00,71.5,70.3,29.87,West,271,0.0,0.0,96,0.00,FEW,,0.00,WeatherDisplay:10.37,2013-09-03 10:28:00,
2013-09-03 06:33:00,71.5,70.3,29.87,West,271,0.0,0.0,96,0.00,FEW,,0.00,WeatherDisplay:10.37,2013-09-03 10:33:00,
2013-09-03 06:38:00,71.5,70.3,29.87,West,271,0.0,0.0,96,0.00,FEW,,0.00,WeatherDisplay:10.37,2013-09-03 10:38:00,
2013-09-03 06:43:00,71.5,70.3,29.87,West,271,0.0,0.0,96,0.00,FEW,,0.00,WeatherDisplay:10.37,2013-09-03 10:43:00,
2013-09-03 06:48:00,71.4,70.2,29.87,West,271,0.0,0.0,96,0.00,FEW,,0.00,WeatherDisplay:10.37,2013-09-03 10:48:00,
2013-09-03 06:53:00,71.4,70.2,29.87,West,271,0.0,0.0,96,0.00,FEW,,0.00,WeatherDisplay:10.37,2013-09-03 10:53:00,
2013-09-03 06:58:00,71.4,70.2,29.88,West,271,0.0,0.0,96,0.00,FEW,,0.00,WeatherDisplay:10.37,2013-09-03 10:58:00,
2013-09-03 07:03:00,71.3,70.1,29.88,West,271,0.0,0.0,96,0.00,FEW,,0.00,WeatherDisplay:10.37,2013-09-03 11:03:00,
2013-09-03 07:08:00,71.3,70.1,29.88,West,271,0.0,0.0,96,0.00,FEW,,0.00,WeatherDisplay:10.37,2013-09-03 11:08:00,
2013-09-03 07:13:00,71.2,70.0,29.88,West,271,0.0,0.0,96,0.00,OVC,,0.00,WeatherDisplay:10.37,2013-09-03 11:13:00,
2013-09-03 07:18:00,71.2,70.0,29.88,West,271,0.0,0.0,96,0.00,OVC,,0.00,WeatherDisplay:10.37,2013-09-03 11:18:00,
2013-09-03 07:23:00,71.1,69.9,29.88,West,271,0.0,0.0,96,0.00,OVC,,0.00,WeatherDisplay:10.37,2013-09-03 11:23:00,
2013-09-03 07:28:00,71.0,69.8,29.89,West,271,0.0,0.0,96,0.00,OVC,,0.00,WeatherDisplay:10.37,2013-09-03 11:28:00,
2013-09-03 07:33:00,71.0,69.8,29.89,West,271,0.0,0.0,96,0.00,OVC,,0.00,WeatherDisplay:10.37,2013-09-03 11:33:00,
2013-09-03 07:38:00,71.0,69.8,29.89,West,271,0.0,0.0,96,0.00,OVC,,0.00,WeatherDisplay:10.37,2013-09-03 11:38:00,
2013-09-03 07:43:00,71.0,69.8,29.90,West,271,0.0,0.0,96,0.00,OVC,,0.00,WeatherDisplay:10.37,2013-09-03 11:43:00,
2013-09-03 07:48:00,71.0,69.8,29.90,West,271,0.0,0.0,96,0.00,OVC,,0.00,WeatherDisplay:10.37,2013-09-03 11:48:00,
2013-09-03 07:53:00,71.0,69.8,29.90,West,271,0.0,0.0,96,0.00,OVC,,0.00,WeatherDisplay:10.37,2013-09-03 11:53:00,
2013-09-03 07:58:00,71.1,69.9,29.91,West,271,0.0,0.0,96,0.00,OVC,,0.00,WeatherDisplay:10.37,2013-09-03 11:58:00,
2013-09-03 08:03:00,71.1,69.9,29.91,West,271,0.0,0.0,96,0.00,OVC,,0.00,WeatherDisplay:10.37,2013-09-03 12:03:00,
2013-09-03 08:08:00,71.1,69.9,29.91,West,271,0.0,0.0,96,0.00,OVC,,0.00,WeatherDisplay:10.37,2013-09-03 12:08:00,
2013-09-03 08:13:00,71.2,70.0,29.92,West,271,0.0,0.0,96,0.00,BKN,,0.00,WeatherDisplay:10.37,2013-09-03 12:13:00,
2013-09-03 08:18:00,71.2,70.0,29.92,West,271,0.0,0.0,96,0.00,BKN,,0.00,WeatherDisplay:10.37,2013-09-03 12:18:00,
2013-09-03 08:23:00,71.2,70.0,29.91,West,271,0.0,0.0,96,0.00,BKN,,0.00,WeatherDisplay:10.37,2013-09-03 12:23:00,
2013-09-03 08:28:00,71.3,70.1,29.91,West,271,0.0,0.0,96,0.00,BKN,,0.00,WeatherDisplay:10.37,2013-09-03 12:28:00,
2013-09-03 08:33:00,71.3,70.4,29.91,West,271,0.0,0.0,97,0.00,BKN,,0.00,WeatherDisplay:10.37,2013-09-03 12:33:00,
2013-09-03 08:38:00,71.4,70.5,29.91,West,271,0.0,0.0,97,0.00,BKN,,0.00,WeatherDisplay:10.37,2013-09-03 12:38:00,
2013-09-03 08:43:00,71.4,70.5,29.91,West,271,0.0,0.0,97,0.00,BKN,,0.00,WeatherDisplay:10.37,2013-09-03 12:43:00,
2013-09-03 08:48:00,71.5,70.3,29.91,West,271,0.0,0.0,96,0.00,BKN,,0.00,WeatherDisplay:10.37,2013-09-03 12:48:00,
2013-09-03 08:53:00,71.5,70.6,29.91,West,271,0.0,0.0,97,0.00,BKN,,0.00,WeatherDisplay:10.37,2013-09-03 12:53:00,
2013-09-03 08:58:00,71.6,70.7,29.91,West,271,0.0,0.0,97,0.00,BKN,,0.00,WeatherDisplay:10.37,2013-09-03 12:58:00,
2013-09-03 09:03:00,71.7,70.8,29.90,WNW,290,0.0,0.0,97,0.00,BKN,,0.00,WeatherDisplay:10.37,2013-09-03 13:03:00,
2013-09-03 09:08:00,71.9,71.0,29.91,WNW,290,0.0,0.0,97,0.00,BKN,,0.00,WeatherDisplay:10.37,2013-09-03 13:08:00,
2013-09-03 09:13:00,72.0,71.1,29.90,North,360,0.0,0.0,97,0.00,SCT,,0.00,WeatherDisplay:10.37,2013-09-03 13:13:00,
2013-09-03 09:18:00,72.2,71.3,29.90,North,360,0.0,0.0,97,0.00,SCT,,0.00,WeatherDisplay:10.37,2013-09-03 13:18:00,
2013-09-03 09:23:00,72.5,71.6,29.90,WNW,296,2.3,2.3,97,0.00,SCT,,0.00,WeatherDisplay:10.37,2013-09-03 13:23:00,
2013-09-03 09:28:00,72.7,71.8,29.90,WNW,284,1.2,1.2,97,0.00,SCT,,0.00,WeatherDisplay:10.37,2013-09-03 13:28:00,
2013-09-03 09:33:00,72.9,71.7,29.90,North,355,3.5,3.5,96,0.00,SCT,,0.00,WeatherDisplay:10.37,2013-09-03 13:33:00,
2013-09-03 09:38:00,73.1,71.9,29.90,West,259,3.5,3.5,96,0.00,SCT,,0.00,WeatherDisplay:10.37,2013-09-03 13:38:00,
2013-09-03 09:43:00,73.4,72.2,29.90,SW,232,3.5,3.5,96,0.00,SCT,,0.00,WeatherDisplay:10.37,2013-09-03 13:43:00,
2013-09-03 09:48:00,73.6,72.1,29.90,West,264,0.0,0.0,95,0.00,SCT,,0.00,WeatherDisplay:10.37,2013-09-03 13:48:00,
2013-09-03 09:53:00,73.9,72.4,29.90,NNE,23,1.2,1.2,95,0.00,SCT,,0.00,WeatherDisplay:10.37,2013-09-03 13:53:00,
2013-09-03 09:58:00,74.1,72.3,29.90,WSW,249,3.5,3.5,94,0.00,SCT,,0.00,WeatherDisplay:10.37,2013-09-03 13:58:00,
2013-09-03 10:03:00,74.3,72.1,29.91,NW,323,2.3,2.3,93,0.00,SCT,,0.00,WeatherDisplay:10.37,2013-09-03 14:03:00,
2013-09-03 10:08:00,74.5,72.3,29.91,SW,236,3.5,3.5,93,0.00,SCT,,0.00,WeatherDisplay:10.37,2013-09-03 14:08:00,
2013-09-03 10:13:00,74.8,72.6,29.91,SW,219,3.5,3.5,93,0.00,BKN,,0.00,WeatherDisplay:10.37,2013-09-03 14:13:00,
2013-09-03 10:18:00,75.0,72.5,29.91,West,259,3.5,3.5,92,0.00,BKN,,0.00,WeatherDisplay:10.37,2013-09-03 14:18:00,
2013-09-03 10:23:00,75.2,72.4,29.91,WSW,254,2.3,2.3,91,0.00,BKN,,0.00,WeatherDisplay:10.37,2013-09-03 14:23:00,
2013-09-03 10:28:00,75.5,72.7,29.91,WNW,286,3.5,3.5,91,0.00,BKN,,0.00,WeatherDisplay:10.37,2013-09-03 14:28:00,
2013-09-03 10:33:00,75.7,72.6,29.91,NW,306,3.5,3.5,90,0.00,BKN,,0.00,WeatherDisplay:10.37,2013-09-03 14:33:00,
2013-09-03 10:38:00,75.9,72.8,29.91,NNE,13,1.2,1.2,90,0.00,BKN,,0.00,WeatherDisplay:10.37,2013-09-03 14:38:00,
2013-09-03 10:43:00,76.1,72.6,29.91,South,180,2.3,2.3,89,0.00,BKN,,0.00,WeatherDisplay:10.37,2013-09-03 14:43:00,
2013-09-03 10:48:00,76.4,72.6,29.91,NNW,346,1.2,1.2,88,0.00,BKN,,0.00,WeatherDisplay:10.37,2013-09-03 14:48:00,
2013-09-03 10:53:00,76.7,72.5,29.91,WSW,256,1.2,1.2,87,0.00,BKN,,0.00,WeatherDisplay:10.37,2013-09-03 14:53:00,
2013-09-03 10:58:00,77.0,72.8,29.91,WNW,284,5.8,5.8,87,0.00,BKN,,0.00,WeatherDisplay:10.37,2013-09-03 14:58:00,
2013-09-03 11:03:00,77.3,72.8,29.91,SW,221,0.0,0.0,86,0.00,BKN,,0.00,WeatherDisplay:10.37,2013-09-03 15:03:00,
2013-09-03 11:08:00,77.6,73.1,29.91,NW,309,3.5,3.5,86,0.00,BKN,,0.00,WeatherDisplay:10.37,2013-09-03 15:08:00,
2013-09-03 11:13:00,77.8,72.9,29.91,SW,233,4.0,4.0,85,0.00,SCT,,0.00,WeatherDisplay:10.37,2013-09-03 15:13:00,
2013-09-03 11:18:00,77.9,72.7,29.91,SSW,213,1.2,1.2,84,0.00,SCT,,0.00,WeatherDisplay:10.37,2013-09-03 15:18:00,
2013-09-03 11:23:00,78.0,72.8,29.91,SSW,213,3.0,3.0,84,0.00,SCT,,0.00,WeatherDisplay:10.37,2013-09-03 15:23:00,
2013-09-03 11:28:00,78.4,72.8,29.91,West,265,3.5,3.5,83,0.00,SCT,,0.00,WeatherDisplay:10.37,2013-09-03 15:28:00,
2013-09-03 11:33:00,78.8,73.2,29.91,WSW,243,1.2,0.0,83,0.00,SCT,,0.00,WeatherDisplay:10.37,2013-09-03 15:33:00,
2013-09-03 11:38:00,79.1,73.1,29.91,WSW,242,1.2,0.0,82,0.00,SCT,,0.00,WeatherDisplay:10.37,2013-09-03 15:38:00,
2013-09-03 11:43:00,79.3,73.0,29.91,WSW,244,1.2,0.0,81,0.00,SCT,,0.00,WeatherDisplay:10.37,2013-09-03 15:43:00,
2013-09-03 11:48:00,79.5,73.5,29.91,WSW,247,1.2,0.0,82,0.00,SCT,,0.00,WeatherDisplay:10.37,2013-09-03 15:48:00,
2013-09-03 11:53:00,79.5,73.9,29.91,NNE,24,1.2,0.0,83,0.00,SCT,,0.00,WeatherDisplay:10.37,2013-09-03 15:53:00,
2013-09-03 11:58:00,79.3,73.3,29.91,SSW,209,2.0,2.0,82,0.00,SCT,,0.00,WeatherDisplay:10.37,2013-09-03 15:58:00,
2013-09-03 12:03:00,79.2,73.2,29.91,NNW,333,1.2,1.2,82,0.00,SCT,,0.00,WeatherDisplay:10.37,2013-09-03 16:03:00,
2013-09-03 12:08:00,79.3,73.3,29.91,NNE,19,3.5,3.5,82,0.00,SCT,,0.00,WeatherDisplay:10.37,2013-09-03 16:08:00,
2013-09-03 12:13:00,79.3,73.0,29.91,North,360,0.0,0.0,81,0.00,SCT,,0.00,WeatherDisplay:10.37,2013-09-03 16:13:00,
2013-09-03 12:18:00,79.4,72.7,29.91,North,351,2.3,2.3,80,0.00,SCT,,0.00,WeatherDisplay:10.37,2013-09-03 16:18:00,
2013-09-03 12:23:00,79.6,73.3,29.91,West,276,2.3,2.3,81,0.00,SCT,,0.00,WeatherDisplay:10.37,2013-09-03 16:23:00,
2013-09-03 12:28:00,79.9,73.2,29.91,West,267,1.2,1.2,80,0.00,SCT,,0.00,WeatherDisplay:10.37,2013-09-03 16:28:00,
2013-09-03 12:33:00,80.2,73.8,29.91,NE,40,3.5,3.5,81,0.00,SCT,,0.00,WeatherDisplay:10.37,2013-09-03 16:33:00,
2013-09-03 12:38:00,80.6,73.5,29.91,NW,305,1.2,1.2,79,0.00,SCT,,0.00,WeatherDisplay:10.37,2013-09-03 16:38:00,
2013-09-03 12:43:00,81.0,73.1,29.91,NW,321,4.6,4.6,77,0.00,SCT,,0.00,WeatherDisplay:10.37,2013-09-03 16:43:00,
2013-09-03 12:48:00,81.5,74.0,29.91,West,281,4.6,4.6,78,0.00,SCT,,0.00,WeatherDisplay:10.37,2013-09-03 16:48:00,
2013-09-03 12:53:00,81.8,73.9,29.91,SSE,166,2.3,2.3,77,0.00,SCT,,0.00,WeatherDisplay:10.37,2013-09-03 16:53:00,
2013-09-03 12:58:00,81.9,74.0,29.90,SW,224,1.2,1.2,77,0.00,SCT,,0.00,WeatherDisplay:10.37,2013-09-03 16:58:00,
2013-09-03 13:03:00,82.2,73.5,29.90,NW,323,4.6,4.6,75,0.00,SCT,,0.00,WeatherDisplay:10.37,2013-09-03 17:03:00,
2013-09-03 13:08:00,82.4,74.1,29.90,SSW,213,1.2,1.2,76,0.00,SCT,,0.00,WeatherDisplay:10.37,2013-09-03 17:08:00,
2013-09-03 13:13:00,82.4,74.5,29.90,NNW,343,1.2,1.2,77,0.00,SCT,,0.00,WeatherDisplay:10.37,2013-09-03 17:13:00,
2013-09-03 13:18:00,82.1,74.2,29.90,NNW,331,0.0,0.0,77,0.00,SCT,,0.00,WeatherDisplay:10.37,2013-09-03 17:18:00,
2013-09-03 13:23:00,82.3,74.0,29.90,SSW,210,3.5,3.5,76,0.00,SCT,,0.00,WeatherDisplay:10.37,2013-09-03 17:23:00,
2013-09-03 13:28:00,82.7,74.4,29.90,NNE,19,2.3,2.3,76,0.00,SCT,,0.00,WeatherDisplay:10.37,2013-09-03 17:28:00,
2013-09-03 13:33:00,83.3,73.7,29.90,North,355,3.5,3.5,73,0.00,SCT,,0.00,WeatherDisplay:10.37,2013-09-03 17:33:00,
2013-09-03 13:38:00,83.6,74.0,29.90,NNW,335,2.3,2.3,73,0.00,SCT,,0.00,WeatherDisplay:10.37,2013-09-03 17:38:00,
2013-09-03 13:43:00,83.8,73.8,29.90,SSW,209,3.5,3.5,72,0.00,SCT,,0.00,WeatherDisplay:10.37,2013-09-03 17:43:00,
2013-09-03 13:48:00,83.9,74.3,29.90,NNW,327,1.2,1.2,73,0.00,SCT,,0.00,WeatherDisplay:10.37,2013-09-03 17:48:00,
2013-09-03 13:53:00,83.7,74.5,29.89,NNE,13,2.3,2.3,74,0.00,SCT,,0.00,WeatherDisplay:10.37,2013-09-03 17:53:00,
2013-09-03 13:58:00,83.8,72.5,29.89,NNW,328,2.3,2.3,69,0.00,SCT,,0.00,WeatherDisplay:10.37,2013-09-03 17:58:00,
2013-09-03 14:03:00,84.1,73.7,29.89,SW,215,2.3,2.3,71,0.00,SCT,,0.00,WeatherDisplay:10.37,2013-09-03 18:03:00,
2013-09-03 14:08:00,84.3,73.0,29.89,WNW,298,1.2,1.2,69,0.00,SCT,,0.00,WeatherDisplay:10.37,2013-09-03 18:08:00,
2013-09-03 14:13:00,84.5,72.8,29.89,WNW,301,1.0,1.0,68,0.00,BKN,,0.00,WeatherDisplay:10.37,2013-09-03 18:13:00,
2013-09-03 14:18:00,84.9,73.6,29.89,NNE,27,1.2,1.2,69,0.00,BKN,,0.00,WeatherDisplay:10.37,2013-09-03 18:18:00,
2013-09-03 14:23:00,85.2,73.4,29.89,WSW,238,4.6,4.6,68,0.00,BKN,,0.00,WeatherDisplay:10.37,2013-09-03 18:23:00,
2013-09-03 14:28:00,85.2,73.9,29.89,WNW,284,3.5,3.5,69,0.00,BKN,,0.00,WeatherDisplay:10.37,2013-09-03 18:28:00,
2013-09-03 14:33:00,85.4,73.6,29.89,NNW,337,3.5,3.5,68,0.00,BKN,,0.00,WeatherDisplay:10.37,2013-09-03 18:33:00,
2013-09-03 14:38:00,85.4,73.2,29.89,NNW,348,1.2,1.2,67,0.00,BKN,,0.00,WeatherDisplay:10.37,2013-09-03 18:38:00,
2013-09-03 14:43:00,85.2,73.9,29.89,NNE,26,0.0,0.0,69,0.00,BKN,,0.00,WeatherDisplay:10.37,2013-09-03 18:43:00,
2013-09-03 14:48:00,84.8,73.5,29.88,West,269,0.0,0.0,69,0.00,BKN,,0.00,WeatherDisplay:10.37,2013-09-03 18:48:00,
2013-09-03 14:53:00,84.7,73.4,29.88,West,277,2.3,2.3,69,0.00,BKN,,0.00,WeatherDisplay:10.37,2013-09-03 18:53:00,
2013-09-03 14:58:00,84.8,73.9,29.88,West,268,1.2,1.2,70,0.00,BKN,,0.00,WeatherDisplay:10.37,2013-09-03 18:58:00,
2013-09-03 15:03:00,84.8,73.5,29.88,WNW,298,1.2,1.2,69,0.00,BKN,,0.00,WeatherDisplay:10.37,2013-09-03 19:03:00,
2013-09-03 15:08:00,84.7,74.3,29.87,North,9,1.2,0.0,71,0.00,BKN,,0.00,WeatherDisplay:10.37,2013-09-03 19:08:00,
2013-09-03 15:13:00,84.4,72.2,29.87,WNW,299,1.2,1.2,67,0.00,SCT,,0.00,WeatherDisplay:10.37,2013-09-03 19:13:00,
2013-09-03 15:18:00,84.4,72.2,29.87,NNW,333,1.2,0.0,67,0.00,SCT,,0.00,WeatherDisplay:10.37,2013-09-03 19:18:00,
2013-09-03 15:23:00,84.5,72.8,29.86,South,184,2.3,2.3,68,0.00,SCT,,0.00,WeatherDisplay:10.37,2013-09-03 19:23:00,
2013-09-03 15:28:00,84.7,72.1,29.86,NNW,329,1.2,1.2,66,0.00,SCT,,0.00,WeatherDisplay:10.37,2013-09-03 19:28:00,
2013-09-03 15:33:00,85.0,71.5,29.86,ENE,76,2.3,0.0,64,0.00,SCT,,0.00,WeatherDisplay:10.37,2013-09-03 19:33:00,
2013-09-03 15:38:00,85.2,71.6,29.86,WNW,294,3.5,3.5,64,0.00,SCT,,0.00,WeatherDisplay:10.37,2013-09-03 19:38:00,
2013-09-03 15:43:00,85.4,71.8,29.86,NW,325,2.3,2.3,64,0.00,SCT,,0.00,WeatherDisplay:10.37,2013-09-03 19:43:00,
2013-09-03 15:48:00,85.2,70.7,29.85,West,266,1.2,1.2,62,0.00,SCT,,0.00,WeatherDisplay:10.37,2013-09-03 19:48:00,
2013-09-03 15:53:00,85.1,70.1,29.85,SSW,213,2.0,2.0,61,0.00,SCT,,0.00,WeatherDisplay:10.37,2013-09-03 19:53:00,
2013-09-03 15:58:00,85.1,70.1,29.85,WSW,243,2.3,2.3,61,0.00,SCT,,0.00,WeatherDisplay:10.37,2013-09-03 19:58:00,
2013-09-03 16:03:00,85.4,71.8,29.85,SSW,192,2.0,2.0,64,0.00,SCT,,0.00,WeatherDisplay:10.37,2013-09-03 20:03:00,
2013-09-03 16:08:00,85.6,70.6,29.84,NNW,327,0.0,0.0,61,0.00,SCT,,0.00,WeatherDisplay:10.37,2013-09-03 20:08:00,
2013-09-03 16:13:00,85.8,72.2,29.84,NNW,327,1.2,0.0,64,0.00,SCT,,0.00,WeatherDisplay:10.37,2013-09-03 20:13:00,
2013-09-03 16:18:00,85.8,73.1,29.84,NNW,331,2.3,2.3,66,0.00,SCT,,0.00,WeatherDisplay:10.37,2013-09-03 20:18:00,
2013-09-03 16:23:00,85.7,70.7,29.84,WNW,284,3.5,3.5,61,0.00,SCT,,0.00,WeatherDisplay:10.37,2013-09-03 20:23:00,
2013-09-03 16:28:00,85.6,69.6,29.84,WNW,286,3.5,3.5,59,0.00,SCT,,0.00,WeatherDisplay:10.37,2013-09-03 20:28:00,
2013-09-03 16:33:00,85.7,70.7,29.84,SW,234,3.0,3.0,61,0.00,SCT,,0.00,WeatherDisplay:10.37,2013-09-03 20:33:00,
2013-09-03 16:38:00,85.6,70.1,29.84,West,275,3.5,3.5,60,0.00,SCT,,0.00,WeatherDisplay:10.37,2013-09-03 20:38:00,
2013-09-03 16:43:00,85.4,71.4,29.84,NNE,13,2.3,2.3,63,0.00,SCT,,0.00,WeatherDisplay:10.37,2013-09-03 20:43:00,
2013-09-03 16:48:00,85.2,71.2,29.84,SSW,205,1.2,1.2,63,0.00,SCT,,0.00,WeatherDisplay:10.37,2013-09-03 20:48:00,
2013-09-03 16:53:00,85.1,71.5,29.84,NW,325,2.3,2.3,64,0.00,SCT,,0.00,WeatherDisplay:10.37,2013-09-03 20:53:00,
2013-09-03 16:58:00,84.9,72.7,29.84,North,5,2.3,2.3,67,0.00,SCT,,0.00,WeatherDisplay:10.37,2013-09-03 20:58:00,
2013-09-03 17:03:00,84.8,71.3,29.84,WSW,255,2.3,2.3,64,0.00,SCT,,0.00,WeatherDisplay:10.37,2013-09-03 21:03:00,
2013-09-03 17:08:00,84.9,72.3,29.84,ENE,66,3.5,3.5,66,0.00,SCT,,0.00,WeatherDisplay:10.37,2013-09-03 21:08:00,
2013-09-03 17:13:00,84.9,70.9,29.84,WSW,245,3.5,3.5,63,0.00,BKN,,0.00,WeatherDisplay:10.37,2013-09-03 21:13:00,
2013-09-03 17:18:00,84.9,72.7,29.84,NNW,328,3.5,3.5,67,0.00,BKN,,0.00,WeatherDisplay:10.37,2013-09-03 21:18:00,
2013-09-03 17:23:00,84.7,71.6,29.84,WNW,299,3.5,0.0,65,0.00,BKN,,0.00,WeatherDisplay:10.37,2013-09-03 21:23:00,
2013-09-03 17:28:00,84.3,70.3,29.84,North,11,1.2,1.2,63,0.00,BKN,,0.00,WeatherDisplay:10.37,2013-09-03 21:28:00,
2013-09-03 17:33:00,84.0,70.0,29.84,NNW,334,0.0,0.0,63,0.00,BKN,,0.00,WeatherDisplay:10.37,2013-09-03 21:33:00,
2013-09-03 17:38:00,83.8,71.7,29.84,NNW,334,0.0,0.0,67,0.00,BKN,,0.00,WeatherDisplay:10.37,2013-09-03 21:38:00,
2013-09-03 17:43:00,83.7,72.4,29.84,NNW,334,0.0,0.0,69,0.00,BKN,,0.00,WeatherDisplay:10.37,2013-09-03 21:43:00,
2013-09-03 17:48:00,83.3,71.6,29.84,NNW,334,0.0,0.0,68,0.00,BKN,,0.00,WeatherDisplay:10.37,2013-09-03 21:48:00,
2013-09-03 17:53:00,83.1,71.9,29.84,North,355,2.3,2.3,69,0.00,BKN,,0.00,WeatherDisplay:10.37,2013-09-03 21:53:00,
2013-09-03 17:58:00,82.9,71.7,29.84,North,360,0.0,0.0,69,0.00,BKN,,0.00,WeatherDisplay:10.37,2013-09-03 21:58:00,
2013-09-03 18:03:00,82.7,71.9,29.84,NE,48,0.0,0.0,70,0.00,BKN,,0.00,WeatherDisplay:10.37,2013-09-03 22:03:00,
2013-09-03 18:08:00,82.7,71.9,29.84,SW,218,0.0,0.0,70,0.00,BKN,,0.00,WeatherDisplay:10.37,2013-09-03 22:08:00,
2013-09-03 18:13:00,82.7,71.9,29.84,SW,218,0.0,0.0,70,0.00,BKN,,0.00,WeatherDisplay:10.37,2013-09-03 22:13:00,
2013-09-03 18:18:00,82.7,71.9,29.85,WSW,258,1.2,0.0,70,0.00,BKN,,0.00,WeatherDisplay:10.37,2013-09-03 22:18:00,
2013-09-03 18:23:00,82.7,72.3,29.85,WNW,299,0.0,0.0,71,0.00,BKN,,0.00,WeatherDisplay:10.37,2013-09-03 22:23:00,
2013-09-03 18:28:00,82.8,72.4,29.85,WNW,299,0.0,0.0,71,0.00,BKN,,0.00,WeatherDisplay:10.37,2013-09-03 22:28:00,
2013-09-03 18:33:00,82.8,71.6,29.85,WSW,246,1.2,0.0,69,0.00,BKN,,0.00,WeatherDisplay:10.37,2013-09-03 22:33:00,
2013-09-03 18:38:00,82.8,71.6,29.85,WSW,244,1.2,1.2,69,0.00,BKN,,0.00,WeatherDisplay:10.37,2013-09-03 22:38:00,
2013-09-03 18:43:00,82.9,72.5,29.85,WNW,288,0.0,0.1,71,0.00,BKN,,0.00,WeatherDisplay:10.37,2013-09-03 22:43:00,
2013-09-03 18:48:00,82.8,72.4,29.85,West,272,0.0,0.0,71,0.00,BKN,,0.00,WeatherDisplay:10.37,2013-09-03 22:48:00,
2013-09-03 18:53:00,82.7,72.7,29.85,NW,325,0.0,0.0,72,0.00,BKN,,0.00,WeatherDisplay:10.37,2013-09-03 22:53:00,
2013-09-03 18:58:00,82.6,71.8,29.85,NW,325,0.0,0.0,70,0.00,BKN,,0.00,WeatherDisplay:10.37,2013-09-03 22:58:00,
2013-09-03 19:03:00,82.4,72.0,29.85,NW,325,0.0,0.0,71,0.00,BKN,,0.00,WeatherDisplay:10.37,2013-09-03 23:03:00,
2013-09-03 19:08:00,82.2,71.9,29.85,NW,325,0.0,0.0,71,0.00,BKN,,0.00,WeatherDisplay:10.37,2013-09-03 23:08:00,
2013-09-03 19:13:00,81.9,72.4,29.85,NW,325,0.0,0.0,73,0.00,SCT,,0.00,WeatherDisplay:10.37,2013-09-03 23:13:00,
2013-09-03 19:18:00,81.6,72.5,29.86,NW,325,0.0,0.0,74,0.00,SCT,,0.00,WeatherDisplay:10.37,2013-09-03 23:18:00,
2013-09-03 19:23:00,81.4,72.7,29.86,NW,325,0.0,0.0,75,0.00,SCT,,0.00,WeatherDisplay:10.37,2013-09-03 23:23:00,
2013-09-03 19:28:00,81.1,72.4,29.86,NW,325,0.0,0.0,75,0.00,SCT,,0.00,WeatherDisplay:10.37,2013-09-03 23:28:00,
2013-09-03 19:33:00,80.7,72.4,29.86,NW,325,0.0,0.0,76,0.00,SCT,,0.00,WeatherDisplay:10.37,2013-09-03 23:33:00,
2013-09-03 19:38:00,80.5,72.2,29.86,NW,325,0.0,0.0,76,0.00,SCT,,0.00,WeatherDisplay:10.37,2013-09-03 23:38:00,
2013-09-03 19:43:00,80.2,72.3,29.86,NW,325,0.0,0.0,77,0.00,SCT,,0.00,WeatherDisplay:10.37,2013-09-03 23:43:00,
2013-09-03 19:48:00,79.9,72.4,29.87,NW,325,0.0,0.0,78,0.00,SCT,,0.00,WeatherDisplay:10.37,2013-09-03 23:48:00,
2013-09-03 19:53:00,79.6,72.5,29.87,NW,325,0.0,0.0,79,0.00,SCT,,0.00,WeatherDisplay:10.37,2013-09-03 23:53:00,
2013-09-03 19:58:00,79.4,72.3,29.87,NW,325,0.0,0.0,79,0.00,SCT,,0.00,WeatherDisplay:10.37,2013-09-03 23:58:00,
2013-09-03 20:03:00,79.1,72.0,29.88,NW,325,0.0,0.0,79,0.00,SCT,,0.00,WeatherDisplay:10.37,2013-09-04 00:03:00,
2013-09-03 20:08:00,78.8,72.1,29.88,NW,325,0.0,0.0,80,0.00,SCT,,0.00,WeatherDisplay:10.37,2013-09-04 00:08:00,
2013-09-03 20:13:00,78.3,72.0,29.87,NW,325,0.0,0.0,81,0.00,SCT,,0.00,WeatherDisplay:10.37,2013-09-04 00:13:00,
2013-09-03 20:18:00,78.0,72.4,29.88,NW,325,0.0,0.0,83,0.00,SCT,,0.00,WeatherDisplay:10.37,2013-09-04 00:18:00,
2013-09-03 20:23:00,77.9,72.7,29.88,NW,325,0.0,0.0,84,0.00,SCT,,0.00,WeatherDisplay:10.37,2013-09-04 00:23:00,
2013-09-03 20:28:00,77.6,72.0,29.88,NW,325,0.0,0.0,83,0.00,SCT,,0.00,WeatherDisplay:10.37,2013-09-04 00:28:00,
2013-09-03 20:33:00,77.3,71.7,29.88,NW,325,0.0,0.0,83,0.00,SCT,,0.00,WeatherDisplay:10.37,2013-09-04 00:33:00,
2013-09-03 20:38:00,77.0,71.8,29.89,NW,325,0.0,0.0,84,0.00,SCT,,0.00,WeatherDisplay:10.37,2013-09-04 00:38:00,
2013-09-03 20:43:00,76.7,71.5,29.89,NW,325,0.0,0.0,84,0.00,SCT,,0.00,WeatherDisplay:10.37,2013-09-04 00:43:00,
2013-09-03 20:48:00,76.6,71.4,29.89,NW,325,0.0,0.0,84,0.00,SCT,,0.00,WeatherDisplay:10.37,2013-09-04 00:48:00,
2013-09-03 20:53:00,76.4,71.6,29.89,NW,325,0.0,0.0,85,0.00,SCT,,0.00,WeatherDisplay:10.37,2013-09-04 00:53:00,
2013-09-03 20:58:00,76.2,71.4,29.89,NW,325,0.0,0.0,85,0.00,SCT,,0.00,WeatherDisplay:10.37,2013-09-04 00:58:00,
2013-09-03 21:03:00,76.1,71.3,29.90,NW,325,0.0,0.0,85,0.00,SCT,,0.00,WeatherDisplay:10.37,2013-09-04 01:03:00,
2013-09-03 21:08:00,75.9,71.4,29.90,NW,325,0.0,0.0,86,0.00,SCT,,0.00,WeatherDisplay:10.37,2013-09-04 01:08:00,
2013-09-03 21:13:00,75.7,71.2,29.90,NW,325,0.0,0.0,86,0.00,SCT,,0.00,WeatherDisplay:10.37,2013-09-04 01:13:00,
2013-09-03 21:18:00,75.5,71.0,29.91,NW,325,0.0,0.0,86,0.00,SCT,,0.00,WeatherDisplay:10.37,2013-09-04 01:18:00,
2013-09-03 21:23:00,75.3,71.2,29.91,NW,325,0.0,0.0,87,0.00,SCT,,0.00,WeatherDisplay:10.37,2013-09-04 01:23:00,
2013-09-03 21:28:00,75.1,71.0,29.91,NW,325,0.0,0.0,87,0.00,SCT,,0.00,WeatherDisplay:10.37,2013-09-04 01:28:00,
2013-09-03 21:33:00,75.0,70.9,29.91,NW,325,0.0,0.0,87,0.00,SCT,,0.00,WeatherDisplay:10.37,2013-09-04 01:33:00,
2013-09-03 21:38:00,74.9,71.1,29.91,NW,325,0.0,0.0,88,0.00,SCT,,0.00,WeatherDisplay:10.37,2013-09-04 01:38:00,
2013-09-03 21:43:00,74.7,70.9,29.91,NW,325,0.0,0.0,88,0.00,SCT,,0.00,WeatherDisplay:10.37,2013-09-04 01:43:00,
2013-09-03 21:48:00,74.6,70.8,29.92,NW,325,0.0,0.0,88,0.00,SCT,,0.00,WeatherDisplay:10.37,2013-09-04 01:48:00,
2013-09-03 21:53:00,74.4,70.9,29.92,NW,325,0.0,0.0,89,0.00,SCT,,0.00,WeatherDisplay:10.37,2013-09-04 01:53:00,
2013-09-03 21:58:00,74.2,70.7,29.92,NW,325,0.0,0.0,89,0.00,SCT,,0.00,WeatherDisplay:10.37,2013-09-04 01:58:00,
2013-09-03 22:03:00,74.1,70.6,29.92,NW,325,0.0,0.0,89,0.00,SCT,,0.00,WeatherDisplay:10.37,2013-09-04 02:03:00,
2013-09-03 22:08:00,74.0,70.6,29.92,NW,325,0.0,0.0,89,0.00,SCT,,0.00,WeatherDisplay:10.37,2013-09-04 02:08:00,
2013-09-03 22:13:00,73.9,70.8,29.92,NW,325,0.0,0.0,90,0.00,SCT,,0.00,WeatherDisplay:10.37,2013-09-04 02:13:00,
2013-09-03 22:18:00,73.7,70.6,29.92,NW,325,0.0,0.0,90,0.00,SCT,,0.00,WeatherDisplay:10.37,2013-09-04 02:18:00,
2013-09-03 22:23:00,73.7,70.6,29.92,NW,325,0.0,0.0,90,0.00,SCT,,0.00,WeatherDisplay:10.37,2013-09-04 02:23:00,
2013-09-03 22:28:00,73.5,70.4,29.92,NW,325,0.0,0.0,90,0.00,SCT,,0.00,WeatherDisplay:10.37,2013-09-04 02:28:00,
2013-09-03 22:33:00,73.3,70.2,29.92,NW,325,0.0,0.0,90,0.00,SCT,,0.00,WeatherDisplay:10.37,2013-09-04 02:33:00,
2013-09-03 22:38:00,73.1,70.3,29.93,NW,325,0.0,0.0,91,0.00,SCT,,0.00,WeatherDisplay:10.37,2013-09-04 02:38:00,
2013-09-03 22:43:00,73.0,70.2,29.93,NW,325,0.0,0.0,91,0.00,SCT,,0.00,WeatherDisplay:10.37,2013-09-04 02:43:00,
2013-09-03 22:48:00,73.0,70.2,29.93,NW,325,0.0,0.0,91,0.00,SCT,,0.00,WeatherDisplay:10.37,2013-09-04 02:48:00,
2013-09-03 22:53:00,72.9,70.1,29.93,NW,325,0.0,0.0,91,0.00,SCT,,0.00,WeatherDisplay:10.37,2013-09-04 02:53:00,
2013-09-03 22:58:00,72.8,70.0,29.93,NW,325,0.0,0.0,91,0.00,SCT,,0.00,WeatherDisplay:10.37,2013-09-04 02:58:00,
2013-09-03 23:03:00,72.7,69.9,29.93,NW,325,0.0,0.0,91,0.00,SCT,,0.00,WeatherDisplay:10.37,2013-09-04 03:03:00,
2013-09-03 23:08:00,72.6,69.8,29.93,NW,325,0.0,0.0,91,0.00,SCT,,0.00,WeatherDisplay:10.37,2013-09-04 03:08:00,
2013-09-03 23:13:00,72.4,69.6,29.93,NW,325,0.0,0.0,91,0.00,CLR,,0.00,WeatherDisplay:10.37,2013-09-04 03:13:00,
2013-09-03 23:18:00,72.4,69.6,29.93,NW,325,0.0,0.0,91,0.00,CLR,,0.00,WeatherDisplay:10.37,2013-09-04 03:18:00,
2013-09-03 23:23:00,72.3,69.5,29.93,NW,325,0.0,0.0,91,0.00,CLR,,0.00,WeatherDisplay:10.37,2013-09-04 03:23:00,
2013-09-03 23:28:00,72.2,69.4,29.93,NW,325,0.0,0.0,91,0.00,CLR,,0.00,WeatherDisplay:10.37,2013-09-04 03:28:00,
2013-09-03 23:33:00,72.0,69.2,29.93,NW,325,0.0,0.0,91,0.00,CLR,,0.00,WeatherDisplay:10.37,2013-09-04 03:33:00,
2013-09-03 23:38:00,71.9,69.4,29.93,NW,325,0.0,0.0,92,0.00,CLR,,0.00,WeatherDisplay:10.37,2013-09-04 03:38:00,
2013-09-03 23:43:00,71.8,69.3,29.93,NW,325,0.0,0.0,92,0.00,CLR,,0.00,WeatherDisplay:10.37,2013-09-04 03:43:00,
2013-09-03 23:48:00,71.7,69.3,29.93,NW,325,0.0,0.0,92,0.00,CLR,,0.00,WeatherDisplay:10.37,2013-09-04 03:48:00,
2013-09-03 23:53:00,71.6,69.2,29.94,NW,325,0.0,0.0,92,0.00,CLR,,0.00,WeatherDisplay:10.37,2013-09-04 03:53:00,
2013-09-03 23:58:00,71.6,69.2,29.93,NW,325,0.0,0.0,92,0.00,CLR,,0.00,WeatherDisplay:10.37,2013-09-04 03:58:00,